This demonstration page uses our WeatherBlox Daily Observations layout. Learn more.

Hourly Observations for June 5, 2015

Temp ( °F °C ) Dew Point ( °F °C ) Humidity (%) Winds ( mph kmh ) Pressure ( in mb ) Visibility ( mi km ) Precip ( " mm )
12:15 am 00:15 Mostly Cloudy with Thunderstorms 63 17.3 61 16.1 93 93 SE 20 31 29.97 1015 4 6.43736 0.22 5.588
12:35 am 00:35 Cloudy with Light Rain 64 17.5 61 16 91 91 E 16 26 30 1016 10 16.0934 0.24 6.096
12:55 am 00:55 Cloudy with Light Drizzle 63 17.3 61 16 92 92 E 13 20 30 1016 10 16.0934 0.25 6.35
1:15 am 01:15 Cloudy with Light Rain 63 17.2 61 16.1 93 93 ESE 10 17 30 1016 10 16.0934 0 0
1:35 am 01:35 Cloudy with Light Thunderstorms 63 17.2 61 16 93 93 E 9 15 30.03 1017 10 16.0934 0.01 0.254
1:55 am 01:55 Cloudy 63 17.2 61 16 93 93 ESE 17 28 30 1016 10 16.0934 0.03 0.762
2:15 am 02:15 Cloudy with Light Rain 62 16.9 60 15.6 92 92 SE 16 26 30 1016 10 16.0934 0.05 1.27
2:35 am 02:35 Cloudy 62 16.6 60 15.5 93 93 ESE 12 19 30.03 1017 10 16.0934 0.07 1.778
2:55 am 02:55 Cloudy with Light Rain 62 16.5 60 15.5 94 94 E 17 28 30 1016 10 16.0934 0.09 2.286
3:15 am 03:15 Cloudy with Light Rain 61 16 59 15.1 94 94 ESE 24 39 29.94 1014 10 16.0934 0.01 0.254
3:35 am 03:35 Cloudy 61 16 59 15.1 94 94 E 14 22 30 1016 10 16.0934 0.01 0.254
3:55 am 03:55 Cloudy 61 15.9 59 15 94 94 SE 15 24 30.06 1018 10 16.0934 0.01 0.254
4:15 am 04:15 Cloudy 60 15.8 59 14.8 94 94 SE 13 20 30.06 1018 10 16.0934 0 0
4:35 am 04:35 Cloudy 60 15.8 59 14.8 94 94 SE 13 20 30.06 1018 10 16.0934 0 0
4:55 am 04:55 Cloudy 60 15.8 59 14.8 94 94 SSE 12 19 30.03 1017 10 16.0934 0 0
5:15 am 05:15 Cloudy 60 15.8 59 14.8 94 94 SSE 14 22 30.03 1017 10 16.0934 0 0
5:35 am 05:35 Cloudy 61 16 59 14.8 93 93 S 15 24 30.03 1017 10 16.0934 0 0
5:55 am 05:55 Cloudy 61 16 58 14.7 92 92 S 10 17 30.03 1017 10 16.0934 0 0
6:15 am 06:15 Cloudy 60 15.8 58 14.6 93 93 S 7 11 30.03 1017 10 16.0934 0 0
6:35 am 06:35 Mostly Cloudy 60 15.8 58 14.6 93 93 Calm 30.03 1017 10 16.0934 0 0
6:55 am 06:55 Partly Cloudy 60 15.7 58 14.7 94 94 Calm 30.03 1017 10 16.0934 0 0
7:15 am 07:15 Sunny 60 15.8 59 14.9 94 94 W 3 6 30.06 1018 10 16.0934 0 0
7:35 am 07:35 Sunny 61 16 59 15 94 94 N 6 9 30.06 1018 10 16.0934 0 0
7:55 am 07:55 Sunny 61 16.2 59 15.2 94 94 WNW 7 11 30.09 1019 10 16.0934 0 0
8:15 am 08:15 Partly Cloudy 62 16.5 59 15.2 92 92 WNW 3 6 30.09 1019 10 16.0934 0 0
8:35 am 08:35 Partly Cloudy 62 16.5 60 15.3 93 93 WNW 3 6 30.09 1019 10 16.0934 0 0
8:55 am 08:55 Mostly Cloudy 62 16.6 60 15.5 93 93 Calm 30.09 1019 10 16.0934 0 0
9:15 am 09:15 Partly Cloudy 62 16.7 59 15.2 91 91 Calm 30.09 1019 10 16.0934 0 0
9:35 am 09:35 Sunny 62 16.9 60 15.4 91 91 E 5 7 30.09 1019 10 16.0934 0 0
9:55 am 09:55 Partly Cloudy 63 17 60 15.6 92 92 E 9 15 30.09 1019 10 16.0934 0 0
10:15 am 10:15 Cloudy 63 17 60 15.7 92 92 NNE 15 24 30.03 1017 10 16.0934 0 0
10:35 am 10:35 Mostly Cloudy 64 17.5 61 16.2 92 92 NE 12 19 30.06 1018 10 16.0934 0 0
10:55 am 10:55 Cloudy 64 18 61 16 88 88 ENE 3 6 30.06 1018 10 16.0934 0 0
11:15 am 11:15 Cloudy 65 18.1 61 15.9 87 87 NE 5 7 30.06 1018 10 16.0934 0 0
11:35 am 11:35 Partly Cloudy 66 19 61 16.2 84 84 ENE 8 13 30.06 1018 10 16.0934 0 0
11:55 am 11:55 Sunny 66 18.7 61 16.1 85 85 ENE 10 17 30.06 1018 10 16.0934 0 0
12:15 pm 12:15 Mostly Cloudy 67 19.3 61 16.3 83 83 ENE 9 15 30.06 1018 10 16.0934 0 0
12:35 pm 12:35 Mostly Cloudy 67 19.4 61 16.3 82 82 E 9 15 30.06 1018 10 16.0934 0 0
12:55 pm 12:55 Mostly Cloudy 68 20 62 16.4 80 80 ENE 12 19 30.03 1017 10 16.0934 0 0
1:15 pm 13:15 Mostly Cloudy 68 20.2 62 16.4 79 79 ENE 6 9 30.03 1017 10 16.0934 0 0
1:35 pm 13:35 Mostly Cloudy 69 20.8 62 16.5 77 77 ENE 6 9 30.03 1017 10 16.0934 0 0
1:55 pm 13:55 Mostly Cloudy 70 21.2 62 16.8 76 76 NE 3 6 30.03 1017 10 16.0934 0 0
2:15 pm 14:15 Cloudy 70 20.9 62 16.5 76 76 Calm 30.03 1017 10 16.0934 0 0
2:35 pm 14:35 Mostly Cloudy 71 21.7 62 16.6 73 73 NE 5 7 30.03 1017 10 16.0934 0 0
2:55 pm 14:55 Partly Cloudy 72 22.4 62 16.9 71 71 NNE 7 11 30.03 1017 10 16.0934 0 0
3:15 pm 15:15 Mostly Cloudy 73 22.5 62 16.8 70 70 Calm 30.03 1017 10 16.0934 0 0
3:35 pm 15:35 Partly Cloudy 74 23.1 62 16.7 67 67 E 7 11 30.03 1017 10 16.0934 0 0
3:55 pm 15:55 Partly Cloudy 74 23.1 61 16.3 66 66 ENE 5 7 30.03 1017 10 16.0934 0 0
4:15 pm 16:15 Sunny 75 23.8 62 16.4 63 63 NE 6 9 30.03 1017 10 16.0934 0 0
4:35 pm 16:35 Partly Cloudy 75 23.9 62 16.5 63 63 ENE 8 13 29.97 1015 10 16.0934 0 0
4:55 pm 16:55 Sunny 76 24.2 62 16.8 63 63 NE 9 15 29.97 1015 10 16.0934 0 0
5:15 pm 17:15 Sunny 76 24.3 63 17 64 64 ENE 13 20 29.94 1014 10 16.0934 0 0
5:35 pm 17:35 Sunny 76 24.5 62 16.7 62 62 NE 12 19 29.94 1014 10 16.0934 0 0
5:55 pm 17:55 Sunny 76 24.4 62 16.4 61 61 NE 14 22 29.94 1014 10 16.0934 0 0
6:15 pm 18:15 Sunny 76 24.5 62 16.5 61 61 ENE 13 20 29.94 1014 10 16.0934 0 0
6:35 pm 18:35 Sunny 76 24.4 63 17.1 64 64 ENE 14 22 29.91 1013 10 16.0934 0 0
6:55 pm 18:55 Sunny 75 24 62 16.9 65 65 E 13 20 29.94 1014 10 16.0934 0 0
7:15 pm 19:15 Sunny 75 23.7 62 16.8 65 65 E 14 22 29.94 1014 10 16.0934 0 0
7:35 pm 19:35 Partly Cloudy 73 23 62 16.9 69 69 E 13 20 29.97 1015 10 16.0934 0 0
7:55 pm 19:55 Sunny 73 22.8 62 16.6 68 68 E 12 19 29.97 1015 10 16.0934 0 0
8:15 pm 20:15 Sunny 73 22.5 62 16.5 69 69 E 12 19 29.94 1014 10 16.0934 0 0
8:35 pm 20:35 Mostly Cloudy 72 22.2 62 16.8 72 72 E 12 19 29.97 1015 10 16.0934 0 0
8:55 pm 20:55 Mostly Cloudy 71 21.7 63 17 75 75 E 10 17 29.97 1015 10 16.0934 0 0
9:15 pm 21:15 Mostly Cloudy 70 21.1 63 17.3 79 79 E 8 13 29.97 1015 10 16.0934 0 0
9:35 pm 21:35 Mostly Cloudy 70 20.9 63 17.4 80 80 E 9 15 29.97 1015 10 16.0934 0 0
9:55 pm 21:55 Mostly Cloudy 70 20.9 64 17.5 81 81 E 8 13 29.97 1015 10 16.0934 0 0
10:15 pm 22:15 Cloudy 70 21 63 17.4 80 80 ESE 9 15 29.97 1015 10 16.0934 0 0
10:35 pm 22:35 Cloudy 70 21 63 17.3 80 80 ESE 8 13 30 1016 10 16.0934 0 0
10:55 pm 22:55 Cloudy 70 21.1 63 17.3 79 79 SE 3 6 30 1016 10 16.0934 0 0
11:15 pm 23:15 Cloudy with Light Rain 70 21 63 17.3 80 80 Calm 29.97 1015 10 16.0934 0 0
11:35 pm 23:35 Cloudy with Nearby Thunderstorms 69 20.8 63 17.2 80 80 Calm 29.97 1015 10 16.0934 0 0
11:55 pm 23:55 Cloudy with Nearby Thunderstorms 69 20.5 64 17.5 83 83 ENE 3 6 29.97 1015 10 16.0934 0 0

Powered by AerisWeather